sat.trackr.live / text

‹ back to catalog

STARLINK-35978

NORAD 66601 · 2025-270P

PAYLOAD ACTIVE UNKNOWN

§ Identity

Operator
Country
US
Launch date
2025-11-22
Launch site
AFETR
Launch vehicle
Mass (kg)
RCS (m²)

Purposes: comms

External: N2YO · Heavens-Above · Gunter

§ Orbital elements

Epoch: 2026-09-20T20:22:38.920512Z

Period
94.26 min
Inclination
42.9993°
Eccentricity
0.0001835
Mean motion
15.27619371 rev/d
Perigee alt
481.7 km
Apogee alt
484.2 km
Semi-major
6,861.1 km
B*
6.3869e-4
RAAN
33.9672°
Arg perigee
283.7360°
Mean anomaly
76.3288°
Rev number
4,739

§ Raw data

STARLINK-359781 66601U 25270P   26263.84906158  .00017376  00000+0  63869-3 0  99932 66601  42.9993  33.9672 0001835 283.7360  76.3288 15.27619371 47392

JSON: /api/v1/satellites/66601 · /tle

For live sub-satellite position, see the globe view (requires WebGL).

§ Visibility from observer

Set your observer location to see the next 7 days of passes ≥ 10°. The values pass through the URL so the page stays shareable.

No JS? Fill the form by hand. The geolocation button needs JavaScript.